FENGYUN 1C DEB, 36231

Orbit data source: Space-Track

FENGYUN 1C DEB, 36231 is space debris in SSO originally from a launch on Mon, 10 May 1999 UTC launched from the Taiyaun Space Center, China (TSC). Fengyun 1C debris stems from the Chinese weather satellite Fengyun-1C, which was intentionally destroyed by a Chinese anti-satellite missile in 2007. This event dramatically increased the amount of space debris, with thousands of trackable fragments posing hazards to satellites and human spaceflight. The Fengyun 1C debris cloud has become a focal point in discussions about space sustainability and the need for international regulations to prevent the creation of new debris.

Loading next visibility...
Identifier
36231, 1999-025DVG
Orbit
SSO
Country
Flag of CNCN / PRC
Related business
Manufacturer
Unknown
Mission
Spacecraft
Bus & Motor
Unknown
Mass
Unknown
Launch date (UTC)
1999-05-10 (27 years ago)
Launch vehicle
Unknown
Launch site
Taiyaun Space Center, China (TSC)
Object type
Payload
Rocket body
Debris
Shape & HBR
Unknown shape, 0.1 m
Radar Cross Section
Small (<0.1 m²)

Expand to show TLE details & history
Last TLE update: 2 days ago

TLE from 2 days ago
0 FENGYUN 1C DEB
1 36231U 99025DVG 26061.39673279  .00000204  00000-0  13167-3 0  9998
2 36231  98.7003  38.9083 0061945 105.6122 255.1898 14.12053415866674
Epoch: 2026-03-02T09:31Z
TLE epoch observation values (Epoch: 2026-03-02T09:31:17.713Z)
Latitude
0.00001°
Longitude
95.89375°
Altitude
866.968 km
Speed
7.413 km/s
True Right ascension
02h 35m 37s
True Declination
0° 00' 00"
Sunlit
Object was in daylight at epoch
Visualization orbit readout
Latitude
Unknown
Longitude
Unknown
Altitude
Unknown
Speed
Unknown
Apparent Right ascension
Unknown
Apparent Declination
Unknown
Sunlit
N/A
Visualization observer readout
Local Sidereal Time
12:39:54
Azimuth
Unknown
Elevation
Unknown
Doppler factor
Unknown
Orbital elements
Apogee altitude
894.294 km
Perigee altitude
804.75 km
Semi-major axis
7,227.659 km
Eccentricity
0.00619
Inclination
98.7003°
RAAN
38.9083°
Arg. of periapsis
105.6122°
True anomaly
254.50492°
Mean anomaly
255.1898°
Eccentric anomaly
254.84722°
Mean motion
3.53221 °/min
Orbital period
101.92 mins
BSTAR
0.00013167
Loading maneuver chart data...
Computing Atmospheric mass density...

Documentation

Showing up to 5 results
|